When you browse on this site, cookies collect data to enhance your experience and personalize the content and advertising you see.
Visit our Privacy Policy to learn more. By continuing to use the site, you agree to this use of cookies and data.
  • In Latvia
  • List of Countries
  • For 7 days
  • Water Temperature
  • Satellite Maps
  • Weather Map
  • Weather Widgets
  • user-avatar
    Login

    Hourly Weather Zaranj

    Today, 10 December, Monday

    Time Temperature Precipitation Wind Pressure Humidity
    00:00 +15°C° 0 mm 4 mps 719 mmHg 36%
    01:00 +15°C° 0 mm 4 mps 719 mmHg 38%
    02:00 +14°C° 0 mm 4 mps 719 mmHg 40%
    03:00 +14°C° 0 mm 4 mps 719 mmHg 41%
    04:00 +13°C° 0 mm 4 mps 719 mmHg 42%
    05:00 +13°C° 0 mm 4 mps 719 mmHg 44%
    06:00 +13°C° 0 mm 3 mps 720 mmHg 45%
    07:00 +12°C° 0 mm 3 mps 720 mmHg 46%
    08:00 +14°C° 0 mm 4 mps 720 mmHg 42%
    09:00 +17°C° 0 mm 4 mps 720 mmHg 38%
    10:00 +18°C° 0 mm 4 mps 721 mmHg 33%
    11:00 +19°C° 0 mm 4 mps 720 mmHg 31%
    12:00 +19°C° 0 mm 4 mps 720 mmHg 29%
    13:00 +20°C° 0 mm 3 mps 720 mmHg 27%
    14:00 +20°C° 0 mm 3 mps 719 mmHg 27%
    15:00 +20°C° 0 mm 3 mps 719 mmHg 27%
    16:00 +20°C° 0 mm 3 mps 719 mmHg 27%
    17:00 +19°C° 0 mm 3 mps 719 mmHg 29%
    18:00 +18°C° 0 mm 3 mps 720 mmHg 32%
    19:00 +17°C° 0 mm 2 mps 720 mmHg 34%
    20:00 +16°C° 0 mm 3 mps 720 mmHg 37%
    21:00 +16°C° 0 mm 3 mps 720 mmHg 39%
    22:00 +14°C° 0 mm 3 mps 720 mmHg 41%
    23:00 +14°C° 0 mm 3 mps 720 mmHg 43%

    Tomorrow, 11 December, Tuesday

    Time Temperature Precipitation Wind Pressure Humidity
    00:00 +13°C° 0 mm 3 mps 720 mmHg 45%
    01:00 +13°C° 0 mm 3 mps 720 mmHg 47%
    02:00 +13°C° 0 mm 3 mps 720 mmHg 49%
    03:00 +12°C° 0 mm 3 mps 720 mmHg 50%
    04:00 +12°C° 0 mm 3 mps 720 mmHg 51%
    05:00 +11°C° 0 mm 3 mps 720 mmHg 52%
    06:00 +11°C° 0 mm 3 mps 720 mmHg 53%
    07:00 +12°C° 0 mm 2 mps 720 mmHg 54%
    08:00 +13°C° 0 mm 2 mps 721 mmHg 49%
    09:00 +15°C° 0 mm 2 mps 721 mmHg 44%
    10:00 +16°C° 0 mm 2 mps 722 mmHg 39%
    11:00 +17°C° 0 mm 2 mps 721 mmHg 36%
    12:00 +18°C° 0 mm 2 mps 721 mmHg 33%
    13:00 +19°C° 0 mm 2 mps 721 mmHg 30%
    14:00 +19°C° 0 mm 2 mps 720 mmHg 29%
    15:00 +19°C° 0 mm 2 mps 720 mmHg 29%
    16:00 +20°C° 0 mm 1 mps 720 mmHg 28%
    17:00 +19°C° 0 mm 1 mps 720 mmHg 30%
    18:00 +18°C° 0 mm 1 mps 721 mmHg 32%
    19:00 +16°C° 0 mm 1 mps 721 mmHg 34%
    20:00 +16°C° 0 mm 1 mps 721 mmHg 36%
    21:00 +15°C° 0 mm 1 mps 721 mmHg 37%
    22:00 +15°C° 0 mm 1 mps 721 mmHg 39%
    23:00 +14°C° 0 mm 1 mps 721 mmHg 40%

    Day after tomorrow, 12 December, Wednesday

    Time Temperature Precipitation Wind Pressure Humidity
    00:00 +14°C° 0 mm 1 mps 721 mmHg 41%
    01:00 +14°C° 0 mm 2 mps 721 mmHg 43%
    02:00 +13°C° 0 mm 2 mps 721 mmHg 44%
    03:00 +13°C° 0 mm 2 mps 721 mmHg 46%
    04:00 +13°C° 0 mm 2 mps 721 mmHg 47%
    05:00 +12°C° 0 mm 2 mps 721 mmHg 49%
    06:00 +12°C° 0 mm 1 mps 722 mmHg 51%
    07:00 +12°C° 0 mm 1 mps 722 mmHg 52%
    08:00 +13°C° 0 mm 1 mps 722 mmHg 47%
    09:00 +15°C° 0 mm 1 mps 723 mmHg 41%
    10:00 +16°C° 0 mm 0 mps 724 mmHg 36%
    11:00 +17°C° 0 mm 0 mps 723 mmHg 33%
    12:00 +19°C° 0 mm 1 mps 723 mmHg 30%
    13:00 +20°C° 0 mm 1 mps 722 mmHg 28%
    14:00 +21°C° 0 mm 1 mps 722 mmHg 27%
    15:00 +21°C° 0 mm 1 mps 722 mmHg 26%
    16:00 +20°C° 0 mm 2 mps 722 mmHg 26%
    17:00 +19°C° 0 mm 2 mps 722 mmHg 28%
    18:00 +18°C° 0 mm 2 mps 723 mmHg 30%
    19:00 +17°C° 0 mm 2 mps 723 mmHg 31%
    20:00 +16°C° 0 mm 2 mps 723 mmHg 32%
    21:00 +15°C° 0 mm 1 mps 723 mmHg 33%
    22:00 +15°C° 0 mm 1 mps 723 mmHg 34%
    23:00 +14°C° 0 mm 1 mps 723 mmHg 35%

    13 December, Thursday

    Time Temperature Precipitation Wind Pressure Humidity
    00:00 +14°C° 0 mm 1 mps 723 mmHg 36%
    01:00 +13°C° 0 mm 1 mps 723 mmHg 37%
    02:00 +13°C° 0 mm 1 mps 723 mmHg 38%
    03:00 +13°C° 0 mm 1 mps 722 mmHg 38%
    04:00 +13°C° 0 mm 1 mps 722 mmHg 38%
    05:00 +12°C° 0 mm 1 mps 723 mmHg 39%
    06:00 +12°C° 0 mm 2 mps 723 mmHg 39%
    07:00 +12°C° 0 mm 2 mps 723 mmHg 39%
    08:00 +14°C° 0 mm 2 mps 724 mmHg 35%
    09:00 +16°C° 0 mm 2 mps 724 mmHg 31%
    10:00 +18°C° 0 mm 2 mps 725 mmHg 26%
    11:00 +19°C° 0 mm 2 mps 724 mmHg 24%
    12:00 +20°C° 0 mm 2 mps 723 mmHg 22%
    13:00 +21°C° 0 mm 2 mps 723 mmHg 20%
    14:00 +21°C° 0 mm 2 mps 723 mmHg 19%
    15:00 +21°C° 0 mm 2 mps 722 mmHg 19%
    16:00 +21°C° 0 mm 2 mps 722 mmHg 18%
    17:00 +20°C° 0 mm 2 mps 722 mmHg 20%
    18:00 +19°C° 0 mm 2 mps 723 mmHg 21%
    19:00 +17°C° 0 mm 2 mps 723 mmHg 22%
    20:00 +17°C° 0 mm 2 mps 723 mmHg 23%
    21:00 +16°C° 0 mm 2 mps 723 mmHg 24%
    22:00 +16°C° 0 mm 3 mps 723 mmHg 25%
    23:00 +14°C° 0 mm 3 mps 723 mmHg 26%

    14 December, Friday

    Time Temperature Precipitation Wind Pressure Humidity
    00:00 +14°C° 0 mm 3 mps 723 mmHg 27%
    01:00 +13°C° 0 mm 3 mps 723 mmHg 27%
    02:00 +13°C° 0 mm 3 mps 723 mmHg 28%
    03:00 +13°C° 0 mm 3 mps 723 mmHg 29%
    04:00 +12°C° 0 mm 3 mps 722 mmHg 30%
    05:00 +12°C° 0 mm 3 mps 723 mmHg 30%
    06:00 +13°C° 0 mm 2 mps 723 mmHg 31%
    07:00 +12°C° 0 mm 2 mps 723 mmHg 32%
    08:00 +14°C° 0 mm 2 mps 724 mmHg 29%
    09:00 +16°C° 0 mm 2 mps 724 mmHg 25%
    10:00 +17°C° 0 mm 2 mps 724 mmHg 22%
    11:00 +18°C° 0 mm 2 mps 724 mmHg 20%
    12:00 +19°C° 0 mm 2 mps 723 mmHg 19%
    13:00 +21°C° 0 mm 1 mps 723 mmHg 17%
    14:00 +22°C° 0 mm 1 mps 723 mmHg 17%
    15:00 +22°C° 0 mm 1 mps 723 mmHg 17%
    16:00 +21°C° 0 mm 2 mps 723 mmHg 17%
    17:00 +21°C° 0 mm 1 mps 723 mmHg 18%
    18:00 +20°C° 0 mm 1 mps 723 mmHg 20%
    19:00 +18°C° 0 mm 1 mps 723 mmHg 21%
    20:00 +18°C° 0 mm 1 mps 723 mmHg 22%
    21:00 +17°C° 0 mm 2 mps 723 mmHg 22%
    22:00 +16°C° 0 mm 2 mps 723 mmHg 23%
    23:00 +16°C° 0 mm 2 mps 723 mmHg 23%

    15 December, Saturday

    Time Temperature Precipitation Wind Pressure Humidity
    00:00 +15°C° 0 mm 2 mps 723 mmHg 24%
    01:00 +15°C° 0 mm 2 mps 723 mmHg 25%
    02:00 +15°C° 0 mm 2 mps 722 mmHg 25%
    03:00 +14°C° 0 mm 2 mps 722 mmHg 25%
    04:00 +14°C° 0 mm 2 mps 722 mmHg 26%
    05:00 +14°C° 0 mm 2 mps 722 mmHg 26%
    06:00 +13°C° 0 mm 2 mps 723 mmHg 26%
    07:00 +13°C° 0 mm 2 mps 723 mmHg 26%
    08:00 +15°C° 0 mm 2 mps 723 mmHg 24%
    09:00 +17°C° 0 mm 2 mps 724 mmHg 21%
    10:00 +19°C° 0 mm 1 mps 724 mmHg 18%
    11:00 +20°C° 0 mm 1 mps 724 mmHg 17%
    12:00 +21°C° 0 mm 1 mps 723 mmHg 16%
    13:00 +22°C° 0 mm 1 mps 723 mmHg 15%
    14:00 +21°C° 0 mm 2 mps 723 mmHg 15%
    15:00 +23°C° 0 mm 2 mps 723 mmHg 15%
    16:00 +23°C° 0 mm 2 mps 722 mmHg 15%
    17:00 +21°C° 0 mm 2 mps 723 mmHg 16%
    18:00 +19°C° 0 mm 2 mps 723 mmHg 17%
    19:00 +18°C° 0 mm 2 mps 724 mmHg 17%
    20:00 +18°C° 0 mm 2 mps 724 mmHg 18%
    21:00 +17°C° 0 mm 2 mps 724 mmHg 19%
    22:00 +17°C° 0 mm 2 mps 724 mmHg 20%
    23:00 +16°C° 0 mm 2 mps 724 mmHg 21%
    Show more